Change the Weather History Date:

Wednesday, November 28, 2012

  Actual Average Record
Temperature  
Mean Temperature 24 °F -  
Max Temperature 30 °F 24 °F 47 °F (1962)
Min Temperature 19 °F 7 °F -23 °F (1976)
Degree Days  
Heating Degree Days 40    
Moisture  
Dew Point 19 °F    
Average Humidity 80    
Maximum Humidity 88    
Minimum Humidity 74    
Precipitation  
Precipitation 0.00 in - - ()
Sea Level Pressure  
Sea Level Pressure 30.20 in    
Wind  
Wind Speed 5 mph (SW)    
Max Wind Speed 13 mph    
Max Gust Speed -    
Visibility 10 miles    
Events      
Averages and records for this station are not official NWS values.
T = Trace of Precipitation, MM = Missing Value Source: NWS Daily Summary

Daily Weather History Graph

Daily Weather History Graph

Search for Another Location

Airport or City:

Trip Planner

Search our weather history database for the weather conditions in past years. The results will help you decide how hot, cold, wet, or windy it might be!

Date:

Astronomy

Nov. 28, 2012 Rise Set
Actual Time 7:41 AM CST 4:34 PM CST
Civil Twilight 7:07 AM CST 5:09 PM CST
Nautical Twilight 6:29 AM CST 5:46 PM CST
Astronomical Twilight 5:53 AM CST 6:23 PM CST
Moon 4:50 PM CST (11/28) 7:40 AM CST (11/28)
Length of Visible Light 10h 01m
Length of Day
8h 52m
Full, 100% of the Moon is Illuminated
Nov 28
Full
Dec 6
Last Quarter
Dec 13
New
Dec 19
First Quarter
Dec 28
Full

Hourly Weather History & Observations

Time (CST) Temp. Windchill Dew Point Humidity Pressure Visibility Wind Dir Wind Speed Gust Speed Precip Events Conditions
12:53 AM 19.0 °F 12.3 °F 12.9 °F 77% 30.29 in 10.0 mi West 4.6 mph - N/A   Overcast
1:53 AM 19.0 °F 13.9 °F 14.0 °F 81% 30.29 in 10.0 mi NW 3.5 mph - N/A   Overcast
2:53 AM 19.9 °F 13.4 °F 14.0 °F 78% 30.30 in 10.0 mi WNW 4.6 mph - N/A   Overcast
3:29 AM 19.4 °F 10.4 °F 14.0 °F 80% 30.23 in 10.0 mi NW 6.9 mph - N/A   Overcast
3:53 AM 19.0 °F 11.1 °F 14.0 °F 81% 30.31 in 10.0 mi WNW 5.8 mph - N/A   Overcast
4:53 AM 19.9 °F 13.4 °F 14.0 °F 78% 30.31 in 10.0 mi WNW 4.6 mph - N/A   Overcast
5:32 AM 19.4 °F 14.3 °F 15.8 °F 86% 30.22 in 10.0 mi West 3.5 mph - N/A   Overcast
5:53 AM 19.9 °F 13.4 °F 15.1 °F 81% 30.30 in 10.0 mi West 4.6 mph - N/A   Overcast
6:35 AM 19.4 °F - 15.8 °F 86% 30.21 in 10.0 mi Calm Calm - N/A   Overcast
6:53 AM 19.9 °F - 16.0 °F 85% 30.29 in 10.0 mi Calm Calm - N/A   Overcast
7:53 AM 21.0 °F 16.2 °F 17.1 °F 85% 30.28 in 10.0 mi WSW 3.5 mph - N/A   Overcast
8:53 AM 23.0 °F 15.8 °F 18.0 °F 81% 30.28 in 10.0 mi SSW 5.8 mph - N/A   Overcast
9:53 AM 25.0 °F 16.3 °F 19.0 °F 78% 30.27 in 10.0 mi SSW 8.1 mph - N/A   Overcast
10:53 AM 27.0 °F 16.1 °F 21.0 °F 78% 30.26 in 10.0 mi SW 12.7 mph - N/A   Mostly Cloudy
11:08 AM 26.6 °F 16.2 °F 21.2 °F 80% 30.17 in 10.0 mi SSW 11.5 mph - N/A   Scattered Clouds
11:34 AM 28.4 °F 18.0 °F 21.2 °F 74% 30.16 in 10.0 mi SSW 12.7 mph - N/A   Mostly Cloudy
11:43 AM 28.4 °F 18.5 °F 21.2 °F 74% 30.15 in 10.0 mi SSW 11.5 mph - N/A   Scattered Clouds
11:53 AM 28.0 °F 18.6 °F 21.9 °F 78% 30.22 in 10.0 mi SSW 10.4 mph - N/A   Scattered Clouds
12:53 PM 28.9 °F 19.2 °F 23.0 °F 78% 30.19 in 10.0 mi SW 11.5 mph - N/A   Scattered Clouds
1:53 PM 30.0 °F 20.5 °F 23.0 °F 75% 30.15 in 10.0 mi SSW 11.5 mph - N/A   Clear
2:53 PM 30.0 °F 22.4 °F 23.0 °F 75% 30.13 in 10.0 mi SW 8.1 mph - N/A   Clear
3:53 PM 30.0 °F 21.7 °F 23.0 °F 75% 30.11 in 10.0 mi South 9.2 mph - N/A   Clear
4:53 PM 25.0 °F 18.1 °F 19.9 °F 81% 30.11 in 8.0 mi South 5.8 mph - N/A   Clear
5:53 PM 26.1 °F 21.9 °F 21.0 °F 81% 30.11 in 10.0 mi SSE 3.5 mph - N/A   Clear
6:53 PM 25.0 °F 19.3 °F 19.9 °F 81% 30.11 in 8.0 mi South 4.6 mph - N/A   Clear
7:53 PM 27.0 °F - 21.9 °F 81% 30.12 in 8.0 mi Calm Calm - N/A   Clear
8:53 PM 24.1 °F - 19.9 °F 84% 30.11 in 9.0 mi Calm Calm - N/A   Clear
9:53 PM 25.0 °F 20.7 °F 21.0 °F 85% 30.10 in 9.0 mi East 3.5 mph - N/A   Clear
10:53 PM 25.0 °F - 21.0 °F 85% 30.10 in 7.0 mi Calm Calm - N/A   Clear
11:53 PM 23.0 °F 17.0 °F 19.9 °F 88% 30.13 in 6.0 mi North 4.6 mph - N/A   Clear